Regional Weather Roundup
Issued by NWS Charleston, SC

Current Version | Previous Version | Graphics & Text | Print | Product List | Glossary On
Versions: 1 2 3 4 5 6 7 8 9 10 11 12 13 14 15 16 17 18 19 20 21 22 23 24 25 26 27 28 29 30 31 32 33 34 35 36 37 38 39 40 41 42 43 44 45 46 47 48 49 50
184
ASUS42 KCHS 201027
RWRCHS

Regional Weather Roundup
National Weather Service Charleston SC
600 AM EDT FRI APR 20 2018

NOTE: "fair" indicates few or no clouds below 12,000 feet with no
significant weather and/or obstructions to visibility.

Not all stations are quality controlled. Use data with caution,
especially dewpoint observations.

SCZ027-030-031-034>040-042>050-201100-
...Southeast South Carolina...

CITY           SKY/WX    TMP DP  RH WIND       PRES   REMARKS
N Charleston   FAIR      49  30  48 NE12G24   30.24R
Waterfront Prk   N/A     52  37  56 N21       30.07R
Mount Pleasant FAIR      48  32  53 N5        30.25R
Johns Island   FAIR      50  30  46 N13G21    30.24R
Pinopolis        N/A     50  36  57 NE16      30.16R
Moncks Corner  FAIR      46  27  46 NE14G23   30.26R
Summerville    FAIR      46  32  57 N7        30.27R
Beaufort MCAS  MOCLDY    51  34  52 N13       30.23R
Beaufort Arpt  FAIR      50  36  57 NE14      30.23R
Hilton Head Is MOCLDY    52  32  46 N18G25    30.23R
Walterboro     FAIR      46  32  57 NE8       30.26R
Allendale      FAIR      48  28  46 NE7G14    30.25R

...Southern Midlands and Pee Dee...

CITY           SKY/WX    TMP DP  RH WIND       PRES   REMARKS
Georgetown     FAIR      45  30  57 N13G20    30.27R
Kingstree      FAIR      45  28  53 N6        30.28R
Orangeburg     FAIR      45  28  51 NE13      30.27R
Barnwell       PTSUNNY   46  28  49 NE12      30.27R
Aiken          FAIR      43  28  56 NE9       30.30R
Manning        FAIR      41  28  60 NE7       30.28R
Columbia       FAIR      47  30  51 NE6       30.29R
Sumter         FAIR      42  28  59 N8        30.26R
Florence       FAIR      42  31  64 N5        30.29R
Myrtle Beach   FAIR      46  32  58 N12       30.27R
N Myrtle Beach FAIR      46  31  55 N10       30.25R

$$

GAZ063-065-086>088-099>101-113>116-118-119-134>141-150-201100-
...Southeast Georgia...

CITY           SKY/WX    TMP DP  RH WIND       PRES   REMARKS
Savannah Arpt  MOCLDY    53  32  44 NE15G24   30.21R
Hunter AAF     CLOUDY    55  34  46 NE10      30.18R
Fort Stewart   CLOUDY    55  33  43 NE12G23   30.18R
Statesboro     FAIR      51  27  39 NE6       30.24R
Sylvania       FAIR      48  34  57 NE9       30.26R
Claxton        FAIR      54  33  46 N8        30.22R

...CSRA, Central and far Southeast Georgia...

CITY           SKY/WX    TMP DP  RH WIND       PRES   REMARKS
Thomson        FAIR      46  27  47 SE13G18   30.33R
Augusta-Bush   FAIR      48  27  44 NE10      30.27R
Augusta-Daniel FAIR      49  27  42 NE10      30.27R
Swainsboro     FAIR      50  30  46 E9G20     30.25R
Vidalia        FAIR      52  32  46 NE17G25   30.21R
Eastman        FAIR      51  29  42 NE9       30.23R
Hazlehurst     FAIR      54  34  47 NE6       30.18R
Alma           CLOUDY    54  40  59 NE5       30.16R
Waycross       FAIR      55  40  59 NE5       30.16R
Jesup          NOT AVBL
Baxley         CLOUDY    52  32  46 NE13G20   30.18R
Brunswick      FAIR      57  45  62 NE12      30.17R
Saint Simons   FAIR      61  47  59 NE15G25   30.15R

$$

SCZ027-028-034-036>038-045-046-048>050-GAZ119-141-201100-
...Lake and Supplemental Coastal Observations...

STATION/POSITION TIME  TEMP    WIND        PRES    WAVE   SWELL
                       AIR SEA DIR/SP/G            HT/PER HT/PER/DIR
                 (UTC) (F)     (DEG/KT/KT) (MB)    (FT/S) (FT/S/D)
Winyah Bay       0945   48      20/  8     1024.0R
Lake Murray      0920   46      30/  4/  6 1024.4
ACE Basin NERRS  0945   51     350/  5       N/A
Fort Pulaski     1000   55 65   40/ 13/ 18 1023.0
Sapelo Island    1000   58      50/ 12     1021.0

$$

ANZ835-935-AMZ111-154-330-350-352-354-370-450-454-472-201100-
...C-MAN and Buoy Observations...

STATION/POSITION TIME  TEMP    WIND        PRES    WAVE   SWELL
                       AIR SEA DIR/SP/G            HT/PER HT/PER/DIR
                 (UTC) (F)     (DEG/KT/KT) (MB)    (FT/S) (FT/S/D)
Buoy 41004       1010   56 67   30/ 25/ 33 1022.4
Buoy 41008       0950   61 65   50/ 25/ 31 1020.4R   6/ 6
Folly Beach CMAN 1000   51      10/ 19/ 22 1024.2R
Capers Nearshore 1008   52 63   30/ 23/ 29 1023.7R
Fripp Nearshore  1008   54 63   40/ 21/ 29 1022.4R


STATION/POSITION TIME  TEMP    WIND        PRES    WAVE   SWELL
                       AIR SEA DIR/SP/G            HT/PER HT/PER/DIR
                 (UTC) (F)     (DEG/KT/KT) (MB)    (FT/S) (FT/S/D)
5E St. Marys GA  1000      66                N/A     5/ 5
Frying Pan Buoy  1010   56 64   30/ 23/ 33 1023.0
Buoy 41025       1010   51 71  360/ 23/ 31 1023.6
Cape Lookout NC  1000           10/ 21/ 26 1024.3R
Buoy 41002       1010   68 71   40/ 21/ 27 1018.2
Buoy 41010       1010   74 74  170/ 12/ 16 1018.1
St Augustine FL  1000   67 67   10/ 18/ 20 1018.9R


$$




USA.gov is the U.S. government's official web portal to all federal, state and local government web resources and services.